| time (UTC) | temp F | wind direction | speed MPH | gust MPH | rain 1hr in | rain 24hr in | rain mn in | humidity % | barometer mb |
| 20260903020024 | 65 | 192 | 4.0 | 10.0 | 0.04 | 0.25 | 0.25 | 90 | 1013.3 |
| 20260903015524 | 66 | 186 | 5.0 | 9.0 | 0.03 | 0.24 | 0.24 | 90 | 1013.4 |
| 20260903015023 | 66 | 174 | 3.0 | 11.0 | 0.03 | 0.24 | 0.24 | 89 | 1013.6 |
| 20260903014523 | 66 | 140 | 5.0 | 11.0 | 0.02 | 0.23 | 0.23 | 89 | 1013.7 |
| 20260903014023 | 66 | 173 | 4.0 | 10.0 | 0.01 | 0.22 | 0.22 | 88 | 1014.0 |
| 20260903013522 | 66 | 194 | 4.0 | 10.0 | 0.01 | 0.22 | 0.22 | 87 | 1014.2 |
| 20260903013022 | 66 | 161 | 4.0 | 10.0 | 0.00 | 0.21 | 0.21 | 87 | 1014.3 |
| 20260903012525 | 67 | 200 | 4.0 | 8.0 | 0.00 | 0.21 | 0.21 | 87 | 1014.5 |
| 20260903012025 | 67 | 207 | 4.0 | 8.0 | 0.00 | 0.21 | 0.21 | 87 | 1014.9 |
| 20260903011522 | 67 | 165 | 3.0 | 9.0 | 0.00 | 0.21 | 0.21 | 87 | 1014.5 |
| 20260903011024 | 67 | 175 | 3.0 | 11.0 | 0.00 | 0.21 | 0.21 | 87 | 1014.4 |
| 20260903010521 | 67 | 195 | 4.0 | 11.0 | 0.00 | 0.21 | 0.21 | 87 | 1014.0 |
| 20260903010028 | 67 | 205 | 6.0 | 11.0 | 0.00 | 0.21 | 0.21 | 87 | 1014.0 |
| 20260903005522 | 67 | 194 | 4.0 | 11.0 | 0.00 | 0.21 | 0.21 | 86 | 1014.1 |
| 20260903005020 | 67 | 146 | 4.0 | 10.0 | 0.00 | 0.21 | 0.21 | 87 | 1014.2 |
| 20260903004521 | 67 | 164 | 4.0 | 13.0 | 0.00 | 0.21 | 0.21 | 86 | 1014.1 |
| 20260903004023 | 67 | 197 | 6.0 | 13.0 | 0.00 | 0.21 | 0.21 | 86 | 1014.2 |
| 20260903003520 | 67 | 121 | 4.0 | 10.0 | 0.00 | 0.21 | 0.21 | 86 | 1013.9 |
| 20260903003021 | 67 | 154 | 3.0 | 11.0 | 0.00 | 0.21 | 0.21 | 86 | 1013.9 |
| 20260903002520 | 67 | 171 | 7.0 | 12.0 | 0.00 | 0.21 | 0.21 | 86 | 1013.9 |
| 20260903002020 | 67 | 221 | 3.0 | 10.0 | 0.00 | 0.21 | 0.21 | 86 | 1014.1 |
| 20260903001520 | 67 | 195 | 5.0 | 10.0 | 0.00 | 0.21 | 0.21 | 86 | 1014.1 |
| 20260903001018 | 67 | 72 | 3.0 | 8.0 | 0.00 | 0.21 | 0.21 | 86 | 1013.8 |
| 20260903000518 | 67 | 199 | 3.0 | 13.0 | 0.00 | 0.21 | 0.21 | 86 | 1013.6 |
| 20260903000020 | 67 | 205 | 5.0 | 15.0 | 0.00 | 0.21 | 0.21 | 86 | 1013.5 |
| 20260902235518 | 68 | 181 | 4.0 | 11.0 | 0.00 | 0.21 | 0.21 | 86 | 1013.4 |
| 20260902235017 | 68 | 175 | 3.0 | 10.0 | 0.00 | 0.21 | 0.21 | 86 | 1013.6 |
| 20260902234519 | 68 | 196 | 4.0 | 10.0 | 0.00 | 0.21 | 0.21 | 86 | 1013.7 |
| 20260902234018 | 68 | 130 | 5.0 | 13.0 | 0.00 | 0.21 | 0.21 | 85 | 1013.5 |
| 20260902233520 | 68 | 200 | 7.0 | 13.0 | 0.00 | 0.21 | 0.21 | 85 | 1013.5 |
| 20260902233018 | 68 | 121 | 6.0 | 13.0 | 0.00 | 0.21 | 0.21 | 85 | 1013.4 |
| 20260902232517 | 68 | 202 | 7.0 | 13.0 | 0.00 | 0.21 | 0.21 | 85 | 1013.3 |
| 20260902232120 | 68 | 215 | 6.0 | 18.0 | 0.00 | 0.21 | 0.21 | 85 | 1013.2 |
| 20260902231534 | 68 | 166 | 4.0 | 14.0 | 0.00 | 0.21 | 0.21 | 86 | 1012.7 |
| 20260902231018 | 68 | 170 | 5.0 | 14.0 | 0.00 | 0.21 | 0.21 | 86 | 1012.6 |
| 20260902230516 | 68 | 180 | 4.0 | 18.0 | 0.00 | 0.21 | 0.21 | 86 | 1012.7 |
| 20260902230027 | 68 | 161 | 9.0 | 18.0 | 0.00 | 0.21 | 0.21 | 85 | 1012.5 |
| 20260902225516 | 68 | 146 | 7.0 | 16.0 | 0.00 | 0.21 | 0.21 | 86 | 1012.6 |
| 20260902225017 | 68 | 118 | 7.0 | 15.0 | 0.00 | 0.21 | 0.21 | 86 | 1012.7 |
| 20260902224514 | 69 | 146 | 5.0 | 11.0 | 0.00 | 0.21 | 0.21 | 86 | 1013.3 |
| 20260902224016 | 69 | 129 | 4.0 | 8.0 | 0.00 | 0.21 | 0.21 | 86 | 1013.5 |
| 20260902223511 | 69 | 142 | 3.0 | 9.0 | 0.00 | 0.21 | 0.21 | 86 | 1013.7 |
| 20260902223011 | 69 | 142 | 3.0 | 9.0 | 0.00 | 0.21 | 0.21 | 86 | 1014.0 |
| 20260902222510 | 69 | 134 | 3.0 | 7.0 | 0.00 | 0.21 | 0.21 | 85 | 1014.2 |
| 20260902222011 | 70 | 136 | 1.0 | 6.0 | 0.00 | 0.21 | 0.21 | 85 | 1014.4 |
| 20260902221517 | 70 | 155 | 2.0 | 5.0 | 0.00 | 0.21 | 0.21 | 85 | 1014.3 |
| 20260902221009 | 70 | 157 | 0.0 | 6.0 | 0.00 | 0.21 | 0.21 | 85 | 1014.7 |
| 20260902220508 | 70 | 193 | 1.0 | 6.0 | 0.00 | 0.21 | 0.21 | 84 | 1014.6 |
| 20260902220009 | 70 | 169 | 2.0 | 7.0 | 0.00 | 0.21 | 0.21 | 84 | 1014.8 |
| 20260902215510 | 70 | 160 | 2.0 | 8.0 | 0.00 | 0.21 | 0.21 | 84 | 1014.8 |
| 20260902215007 | 71 | 146 | 2.0 | 8.0 | 0.00 | 0.21 | 0.21 | 84 | 1014.8 |
| 20260902214508 | 71 | 144 | 1.0 | 7.0 | 0.00 | 0.21 | 0.21 | 84 | 1014.8 |
| 20260902214008 | 71 | 178 | 2.0 | 7.0 | 0.00 | 0.21 | 0.21 | 83 | 1014.8 |
| 20260902213507 | 71 | 192 | 1.0 | 7.0 | 0.00 | 0.21 | 0.21 | 83 | 1014.8 |
| 20260902213007 | 71 | 163 | 2.0 | 8.0 | 0.00 | 0.21 | 0.21 | 82 | 1014.8 |
| 20260902212507 | 71 | 179 | 3.0 | 8.0 | 0.00 | 0.21 | 0.21 | 82 | 1014.8 |
| 20260902212008 | 71 | 162 | 4.0 | 12.0 | 0.00 | 0.21 | 0.21 | 81 | 1014.9 |
| 20260902211508 | 71 | 189 | 8.0 | 12.0 | 0.00 | 0.21 | 0.21 | 81 | 1014.9 |
| 20260902211009 | 72 | 199 | 1.0 | 7.0 | 0.00 | 0.21 | 0.21 | 82 | 1014.9 |
| 20260902210507 | 72 | 180 | 2.0 | 7.0 | 0.00 | 0.21 | 0.21 | 82 | 1014.9 |
| 20260902210006 | 71 | 179 | 3.0 | 9.0 | 0.00 | 0.21 | 0.21 | 82 | 1014.8 |
| 20260902205605 | 72 | 129 | 4.0 | 9.0 | 0.00 | 0.21 | 0.21 | 82 | 1014.7 |
| 20260902205005 | 72 | 207 | 4.0 | 8.0 | 0.00 | 0.21 | 0.21 | 82 | 1014.9 |
| 20260902204505 | 72 | 197 | 2.0 | 8.0 | 0.00 | 0.21 | 0.21 | 81 | 1014.8 |
| 20260902204004 | 72 | 209 | 3.0 | 9.0 | 0.00 | 0.21 | 0.21 | 82 | 1014.8 |
| 20260902203504 | 72 | 166 | 4.0 | 10.0 | 0.00 | 0.21 | 0.21 | 82 | 1014.9 |
| 20260902203004 | 71 | 192 | 3.0 | 10.0 | 0.00 | 0.21 | 0.21 | 82 | 1014.9 |
| 20260902202504 | 71 | 183 | 4.0 | 9.0 | 0.00 | 0.21 | 0.21 | 82 | 1014.8 |
| 20260902202004 | 71 | 120 | 5.0 | 10.0 | 0.00 | 0.21 | 0.21 | 81 | 1014.7 |
| 20260902201502 | 71 | 181 | 5.0 | 10.0 | 0.00 | 0.21 | 0.21 | 82 | 1014.8 |
| 20260902201004 | 71 | 188 | 4.0 | 10.0 | 0.00 | 0.21 | 0.21 | 82 | 1014.8 |
| 20260902200501 | 71 | 199 | 5.0 | 10.0 | 0.00 | 0.21 | 0.21 | 83 | 1014.9 |
| 20260902200113 | 71 | 150 | 3.0 | 8.0 | 0.00 | 0.21 | 0.21 | 84 | 1014.9 |
| 20260902195601 | 70 | 159 | 3.0 | 8.0 | 0.00 | 0.21 | 0.21 | 85 | 1015.0 |
| 20260902195159 | 70 | 169 | 2.0 | 7.0 | 0.00 | 0.21 | 0.21 | 85 | 1014.9 |
| 20260902194601 | 70 | 198 | 3.0 | 10.0 | 0.00 | 0.21 | 0.21 | 84 | 1015.0 |
| 20260902194100 | 70 | 140 | 4.0 | 10.0 | 0.00 | 0.21 | 0.21 | 83 | 1015.0 |
| 20260902193602 | 70 | 157 | 3.0 | 9.0 | 0.00 | 0.21 | 0.21 | 83 | 1014.9 |
| 20260902193058 | 70 | 124 | 4.0 | 9.0 | 0.00 | 0.21 | 0.21 | 83 | 1015.1 |
| 20260902192558 | 70 | 132 | 3.0 | 7.0 | 0.00 | 0.21 | 0.21 | 83 | 1015.2 |
| 20260902192102 | 70 | 152 | 1.0 | 5.0 | 0.00 | 0.21 | 0.21 | 83 | 1015.3 |
| 20260902191557 | 70 | 144 | 1.0 | 7.0 | 0.00 | 0.21 | 0.21 | 84 | 1015.3 |
| 20260902191055 | 70 | 152 | 3.0 | 7.0 | 0.00 | 0.21 | 0.21 | 84 | 1015.2 |
| 20260902190555 | 69 | 192 | 2.0 | 7.0 | 0.00 | 0.21 | 0.21 | 85 | 1015.2 |
| 20260902190056 | 69 | 177 | 2.0 | 7.0 | 0.00 | 0.21 | 0.21 | 85 | 1015.2 |
| 20260902185556 | 69 | 182 | 2.0 | 7.0 | 0.00 | 0.21 | 0.21 | 86 | 1015.3 |
| 20260902185054 | 69 | 204 | 4.0 | 8.0 | 0.00 | 0.21 | 0.21 | 86 | 1015.3 |
| 20260902184559 | 69 | 156 | 1.0 | 6.0 | 0.00 | 0.21 | 0.21 | 86 | 1015.3 |
| 20260902184054 | 69 | 193 | 3.0 | 8.0 | 0.00 | 0.21 | 0.21 | 86 | 1015.4 |
| 20260902183554 | 69 | 190 | 2.0 | 8.0 | 0.00 | 0.21 | 0.21 | 87 | 1015.5 |
| 20260902183054 | 69 | 203 | 1.0 | 9.0 | 0.00 | 0.21 | 0.21 | 88 | 1015.6 |
| 20260902182552 | 70 | 232 | 1.0 | 9.0 | 0.00 | 0.21 | 0.21 | 90 | 1015.8 |
| 20260902182052 | 69 | 209 | 3.0 | 9.0 | 0.00 | 0.21 | 0.21 | 91 | 1015.8 |
| 20260902181550 | 69 | 271 | 0.0 | 6.0 | 0.00 | 0.21 | 0.21 | 92 | 1015.9 |
| 20260902181050 | 69 | 192 | 2.0 | 6.0 | 0.00 | 0.21 | 0.21 | 93 | 1016.0 |
| 20260902180549 | 69 | 241 | 1.0 | 7.0 | 0.00 | 0.21 | 0.21 | 94 | 1015.7 |
| 20260902180108 | 69 | 117 | 1.0 | 6.0 | 0.00 | 0.21 | 0.21 | 1015.6 | |
| 20260902175550 | 69 | 150 | 3.0 | 16.0 | 0.00 | 0.21 | 0.21 | 95 | 1015.3 |
| 20260902175048 | 68 | 204 | 6.0 | 10.0 | 0.00 | 0.21 | 0.21 | 95 | 1015.4 |
| 20260902174546 | 68 | 198 | 1.0 | 12.0 | 0.01 | 0.21 | 0.21 | 95 | 1015.5 |
| 20260902174050 | 68 | 203 | 6.0 | 12.0 | 0.02 | 0.21 | 0.21 | 95 | 1015.8 |
| 20260902173545 | 68 | 291 | 1.0 | 12.0 | 0.04 | 0.21 | 0.21 | 95 | 1015.5 |
| 20260902173044 | 68 | 150 | 5.0 | 12.0 | 0.05 | 0.21 | 0.21 | 95 | 1015.1 |
| 20260902172545 | 67 | 178 | 5.0 | 9.0 | 0.06 | 0.21 | 0.21 | 95 | 1014.9 |
| 20260902172043 | 67 | 339 | 2.0 | 6.0 | 0.07 | 0.21 | 0.21 | 95 | 1015.0 |
| 20260902171542 | 67 | 296 | 1.0 | 11.0 | 0.09 | 0.21 | 0.21 | 95 | 1015.5 |
| 20260902171042 | 67 | 297 | 7.0 | 11.0 | 0.10 | 0.21 | 0.21 | 95 | 1015.2 |
| 20260902170541 | 67 | 306 | 7.0 | 12.0 | 0.11 | 0.21 | 0.21 | 95 | 1015.0 |
| 20260902170041 | 66 | 331 | 3.0 | 12.0 | 0.12 | 0.21 | 0.21 | 95 | 1014.4 |
| 20260902165540 | 66 | 209 | 4.0 | 11.0 | 0.13 | 0.21 | 0.21 | 95 | 1014.2 |
| 20260902165038 | 67 | 160 | 3.0 | 10.0 | 0.14 | 0.20 | 0.20 | 95 | 1014.7 |
| 20260902164537 | 66 | 186 | 2.0 | 16.0 | 0.15 | 0.20 | 0.20 | 95 | 1015.2 |
| 20260902164036 | 66 | 199 | 5.0 | 16.0 | 0.16 | 0.19 | 0.19 | 95 | 1015.3 |
| 20260902163536 | 66 | 140 | 1.0 | 22.0 | 0.14 | 0.17 | 0.17 | 96 | 1015.4 |
| 20260902163036 | 66 | 162 | 7.0 | 22.0 | 0.13 | 0.15 | 0.15 | 96 | 1015.4 |
| 20260902162535 | 66 | 207 | 11.0 | 23.0 | 0.13 | 0.15 | 0.15 | 96 | 1015.5 |
| 20260902162036 | 66 | 179 | 11.0 | 20.0 | 0.12 | 0.14 | 0.14 | 96 | 1015.5 |
| 20260902161547 | 67 | 138 | 7.0 | 18.0 | 0.11 | 0.12 | 0.12 | 96 | 1015.7 |
| 20260902161034 | 67 | 203 | 8.0 | 18.0 | 0.10 | 0.11 | 0.11 | 96 | 1015.9 |
| 20260902160533 | 67 | 185 | 9.0 | 17.0 | 0.10 | 0.10 | 0.10 | 96 | 1016.4 |
| 20260902160033 | 67 | 205 | 7.0 | 15.0 | 0.09 | 0.09 | 0.09 | 96 | 1016.8 |
| 20260902155533 | 67 | 198 | 4.0 | 9.0 | 0.07 | 0.07 | 0.07 | 96 | 1016.8 |
| 20260902155033 | 67 | 191 | 1.0 | 13.0 | 0.06 | 0.06 | 0.06 | 96 | 1017.0 |
| 20260902154534 | 67 | 229 | 5.0 | 13.0 | 0.05 | 0.05 | 0.05 | 96 | 1016.8 |
| 20260902154031 | 67 | 194 | 3.0 | 10.0 | 0.03 | 0.03 | 0.03 | 96 | 1016.8 |
| 20260902153531 | 67 | 200 | 2.0 | 10.0 | 0.03 | 0.03 | 0.03 | 96 | 1016.8 |
| 20260902153030 | 66 | 195 | 0.0 | 3.0 | 0.02 | 0.02 | 0.02 | 96 | 1016.6 |
| 20260902152528 | 65 | 111 | 0.0 | 2.0 | 0.02 | 0.02 | 0.02 | 96 | 1016.5 |
| 20260902152030 | 65 | 111 | 0.0 | 2.0 | 0.01 | 0.01 | 0.01 | 96 | 1016.5 |
| 20260902151527 | 65 | 123 | 0.0 | 3.0 | 0.01 | 0.01 | 0.01 | 96 | 1016.5 |
| 20260902151029 | 65 | 123 | 1.0 | 5.0 | 0.01 | 0.01 | 0.01 | 96 | 1016.5 |
| 20260902150526 | 65 | 124 | 1.0 | 5.0 | 0.00 | 0.00 | 0.00 | 96 | 1016.6 |
| 20260902150026 | 65 | 101 | 2.0 | 6.0 | 0.00 | 0.00 | 0.00 | 96 | 1016.6 |
| 20260902145526 | 65 | 96 | 3.0 | 6.0 | 0.00 | 0.01 | 0.00 | 96 | 1016.6 |
| 20260902145026 | 65 | 83 | 3.0 | 6.0 | 0.00 | 0.01 | 0.00 | 96 | 1016.6 |
| 20260902144532 | 65 | 93 | 2.0 | 6.0 | 0.00 | 0.01 | 0.00 | 96 | 1016.7 |
| 20260902144025 | 64 | 115 | 2.0 | 4.0 | 0.00 | 0.01 | 0.00 | 96 | 1016.8 |
| 20260902143526 | 64 | 115 | 2.0 | 7.0 | 0.00 | 0.01 | 0.00 | 96 | 1016.8 |
| 20260902143026 | 64 | 115 | 3.0 | 7.0 | 0.00 | 0.01 | 0.00 | 96 | 1016.8 |
| 20260902142525 | 64 | 101 | 2.0 | 6.0 | 0.00 | 0.01 | 0.00 | 96 | 1016.9 |
| 20260902142025 | 64 | 134 | 2.0 | 5.0 | 0.00 | 0.01 | 0.00 | 96 | 1016.8 |
| 20260902141526 | 64 | 127 | 1.0 | 3.0 | 0.00 | 0.01 | 0.00 | 96 | 1016.9 |
| 20260902141024 | 64 | 96 | 1.0 | 3.0 | 0.00 | 0.01 | 0.00 | 96 | 1017.0 |
| 20260902140522 | 64 | 95 | 2.0 | 4.0 | 0.00 | 0.01 | 0.00 | 96 | 1017.0 |
| 20260902140022 | 64 | 92 | 1.0 | 4.0 | 0.00 | 0.01 | 0.00 | 96 | 1016.8 |
| 20260902135521 | 64 | 103 | 1.0 | 4.0 | 0.00 | 0.01 | 0.00 | 96 | 1016.6 |
| 20260902135021 | 65 | 107 | 2.0 | 4.0 | 0.00 | 0.01 | 0.00 | 96 | 1016.5 |
| 20260902134533 | 65 | 110 | 2.0 | 7.0 | 0.00 | 0.01 | 0.00 | 96 | 1016.7 |
| 20260902134022 | 64 | 121 | 3.0 | 7.0 | 0.00 | 0.01 | 0.00 | 96 | 1016.7 |
| 20260902133520 | 64 | 141 | 4.0 | 7.0 | 0.00 | 0.01 | 0.00 | 95 | 1016.6 |
| 20260902133023 | 64 | 135 | 3.0 | 4.0 | 0.00 | 0.01 | 0.00 | 96 | 1016.4 |
| 20260902132521 | 64 | 113 | 2.0 | 4.0 | 0.00 | 0.01 | 0.00 | 96 | 1016.4 |
| 20260902132020 | 65 | 111 | 0.0 | 6.0 | 0.00 | 0.01 | 0.00 | 96 | 1016.5 |
| 20260902131519 | 64 | 105 | 2.0 | 6.0 | 0.00 | 0.01 | 0.00 | 96 | 1016.5 |
| 20260902131019 | 64 | 103 | 2.0 | 6.0 | 0.00 | 0.01 | 0.00 | 96 | 1016.5 |
| 20260902130522 | 64 | 105 | 1.0 | 6.0 | 0.00 | 0.01 | 0.00 | 96 | 1016.5 |
| 20260902130019 | 64 | 96 | 2.0 | 6.0 | 0.00 | 0.01 | 0.00 | 96 | 1016.5 |
| 20260902125519 | 64 | 92 | 2.0 | 6.0 | 0.00 | 0.01 | 0.00 | 96 | 1016.7 |
| 20260902125022 | 64 | 95 | 1.0 | 6.0 | 0.00 | 0.01 | 0.00 | 96 | 1016.7 |
| 20260902124519 | 64 | 82 | 1.0 | 4.0 | 0.00 | 0.01 | 0.00 | 96 | 1016.7 |
| 20260902124018 | 63 | 94 | 2.0 | 6.0 | 0.00 | 0.01 | 0.00 | 96 | 1016.6 |
| 20260902123518 | 63 | 95 | 2.0 | 6.0 | 0.00 | 0.01 | 0.00 | 96 | 1016.6 |
| 20260902123020 | 63 | 84 | 2.0 | 5.0 | 0.00 | 0.01 | 0.00 | 96 | 1016.7 |
| 20260902122519 | 63 | 84 | 3.0 | 5.0 | 0.00 | 0.01 | 0.00 | 96 | 1016.6 |
| 20260902122016 | 63 | 55 | 3.0 | 7.0 | 0.00 | 0.01 | 0.00 | 96 | 1016.5 |
| 20260902121516 | 63 | 84 | 3.0 | 7.0 | 0.00 | 0.01 | 0.00 | 96 | 1016.4 |
| 20260902121017 | 62 | 76 | 3.0 | 5.0 | 0.00 | 0.01 | 0.00 | 96 | 1016.4 |
| 20260902120516 | 62 | 87 | 2.0 | 7.0 | 0.00 | 0.01 | 0.00 | 96 | 1016.4 |
| 20260902120016 | 62 | 71 | 4.0 | 7.0 | 0.00 | 0.01 | 0.00 | 96 | 1016.5 |
| 20260902115521 | 62 | 92 | 3.0 | 7.0 | 0.00 | 0.01 | 0.00 | 96 | 1016.3 |
| 20260902115015 | 62 | 86 | 4.0 | 8.0 | 0.00 | 0.01 | 0.00 | 96 | 1016.2 |
| 20260902114516 | 62 | 81 | 3.0 | 8.0 | 0.00 | 0.01 | 0.00 | 95 | 1016.3 |
| 20260902114115 | 62 | 98 | 5.0 | 8.0 | 0.00 | 0.01 | 0.00 | 95 | 1016.3 |
| 20260902113515 | 62 | 131 | 4.0 | 9.0 | 0.00 | 0.01 | 0.00 | 95 | 1016.0 |
| 20260902113031 | 62 | 106 | 3.0 | 8.0 | 0.00 | 0.01 | 0.00 | 95 | 1016.1 |
| 20260902112515 | 62 | 111 | 4.0 | 8.0 | 0.00 | 0.01 | 0.00 | 95 | 1016.2 |
| 20260902112015 | 62 | 121 | 4.0 | 10.0 | 0.00 | 0.01 | 0.00 | 95 | 1016.0 |
| 20260902111519 | 62 | 88 | 5.0 | 10.0 | 0.00 | 0.01 | 0.00 | 95 | 1016.0 |
| 20260902111013 | 62 | 120 | 3.0 | 8.0 | 0.00 | 0.01 | 0.00 | 95 | 1015.8 |
| 20260902110517 | 62 | 131 | 4.0 | 8.0 | 0.00 | 0.01 | 0.00 | 95 | 1016.1 |
| 20260902110013 | 62 | 117 | 3.0 | 8.0 | 0.00 | 0.01 | 0.00 | 95 | 1016.1 |
| 20260902105513 | 62 | 136 | 4.0 | 9.0 | 0.00 | 0.04 | 0.00 | 95 | 1016.2 |
| 20260902105015 | 62 | 101 | 4.0 | 9.0 | 0.00 | 0.04 | 0.00 | 95 | 1016.2 |
| 20260902104515 | 62 | 130 | 3.0 | 9.0 | 0.00 | 0.04 | 0.00 | 95 | 1016.3 |
| 20260902104013 | 62 | 114 | 3.0 | 8.0 | 0.00 | 0.04 | 0.00 | 95 | 1016.4 |
| 20260902103512 | 62 | 101 | 3.0 | 8.0 | 0.00 | 0.04 | 0.00 | 95 | 1016.4 |
| 20260902103024 | 62 | 97 | 3.0 | 8.0 | 0.00 | 0.04 | 0.00 | 95 | 1016.5 |
| 20260902102512 | 62 | 98 | 4.0 | 8.0 | 0.00 | 0.04 | 0.00 | 95 | 1016.5 |
| 20260902102012 | 62 | 101 | 2.0 | 7.0 | 0.00 | 0.04 | 0.00 | 95 | 1016.3 |
| 20260902101514 | 62 | 72 | 1.0 | 7.0 | 0.00 | 0.04 | 0.00 | 95 | 1016.3 |
| 20260902101010 | 62 | 128 | 2.0 | 8.0 | 0.00 | 0.04 | 0.00 | 95 | 1016.4 |
| 20260902100510 | 62 | 163 | 2.0 | 8.0 | 0.00 | 0.04 | 0.00 | 95 | 1016.3 |
| 20260902100015 | 63 | 111 | 1.0 | 9.0 | 0.00 | 0.04 | 0.00 | 95 | 1016.4 |
| 20260902095509 | 63 | 107 | 2.0 | 9.0 | 0.00 | 0.07 | 0.00 | 95 | 1016.3 |
| 20260902095008 | 63 | 99 | 2.0 | 8.0 | 0.00 | 0.07 | 0.00 | 95 | 1016.3 |
| 20260902094508 | 63 | 113 | 4.0 | 8.0 | 0.00 | 0.07 | 0.00 | 95 | 1016.2 |
| 20260902094009 | 63 | 76 | 2.0 | 7.0 | 0.00 | 0.07 | 0.00 | 95 | 1016.2 |
| 20260902093507 | 63 | 112 | 1.0 | 7.0 | 0.00 | 0.07 | 0.00 | 95 | 1016.2 |
| 20260902093006 | 63 | 140 | 2.0 | 7.0 | 0.00 | 0.07 | 0.00 | 99 | 1016.1 |
| 20260902092506 | 63 | 109 | 1.0 | 7.0 | 0.00 | 0.07 | 0.00 | 95 | 1016.2 |
| 20260902092005 | 64 | 141 | 3.0 | 7.0 | 0.00 | 0.07 | 0.00 | 95 | 1016.2 |
| 20260902091504 | 64 | 126 | 3.0 | 9.0 | 0.00 | 0.07 | 0.00 | 95 | 1016.1 |
| 20260902091004 | 64 | 128 | 4.0 | 9.0 | 0.00 | 0.07 | 0.00 | 95 | 1016.1 |
| 20260902090503 | 64 | 88 | 2.0 | 7.0 | 0.00 | 0.07 | 0.00 | 95 | 1016.1 |
| 20260902090003 | 64 | 119 | 1.0 | 6.0 | 0.00 | 0.07 | 0.00 | 95 | 1016.1 |
| 20260902085502 | 64 | 119 | 1.0 | 5.0 | 0.00 | 0.12 | 0.00 | 95 | 1016.1 |
| 20260902085002 | 64 | 91 | 1.0 | 4.0 | 0.00 | 0.12 | 0.00 | 95 | 1016.1 |
| 20260902084502 | 64 | 128 | 1.0 | 7.0 | 0.00 | 0.12 | 0.00 | 95 | 1016.0 |
| 20260902084002 | 64 | 101 | 3.0 | 7.0 | 0.00 | 0.12 | 0.00 | 95 | 1015.9 |
| 20260902083505 | 64 | 101 | 1.0 | 8.0 | 0.00 | 0.12 | 0.00 | 95 | 1015.9 |
| 20260902083001 | 64 | 109 | 4.0 | 8.0 | 0.00 | 0.12 | 0.00 | 95 | 1015.8 |
| 20260902082501 | 64 | 89 | 1.0 | 8.0 | 0.00 | 0.12 | 0.00 | 95 | 1015.7 |
| 20260902082101 | 64 | 121 | 2.0 | 8.0 | 0.00 | 0.12 | 0.00 | 95 | 1015.6 |
| 20260902081606 | 64 | 92 | 3.0 | 7.0 | 0.00 | 0.12 | 0.00 | 95 | 1015.7 |
| 20260902081059 | 65 | 101 | 2.0 | 4.0 | 0.00 | 0.12 | 0.00 | 95 | 1015.7 |
| 20260902080559 | 65 | 91 | 1.0 | 4.0 | 0.00 | 0.12 | 0.00 | 95 | 1015.7 |
| 20260902080059 | 65 | 120 | 1.0 | 4.0 | 0.00 | 0.12 | 0.00 | 95 | 1015.6 |
| 20260902075558 | 65 | 106 | 0.0 | 4.0 | 0.00 | 0.15 | 0.00 | 95 | 1015.7 |
| 20260902075102 | 65 | 141 | 1.0 | 3.0 | 0.00 | 0.15 | 0.00 | 95 | 1015.7 |
| 20260902074600 | 65 | 107 | 0.0 | 6.0 | 0.00 | 0.15 | 0.00 | 95 | 1015.7 |
| 20260902074058 | 65 | 107 | 1.0 | 6.0 | 0.00 | 0.15 | 0.00 | 95 | 1015.6 |
| 20260902073557 | 65 | 133 | 2.0 | 8.0 | 0.00 | 0.15 | 0.00 | 95 | 1015.6 |
| 20260902073059 | 65 | 121 | 4.0 | 8.0 | 0.00 | 0.15 | 0.00 | 95 | 1015.4 |
| 20260902072557 | 65 | 139 | 3.0 | 8.0 | 0.00 | 0.15 | 0.00 | 95 | 1015.5 |
| 20260902072056 | 65 | 119 | 3.0 | 8.0 | 0.00 | 0.15 | 0.00 | 95 | 1015.5 |
| 20260902071600 | 65 | 133 | 3.0 | 9.0 | 0.00 | 0.15 | 0.00 | 95 | 1015.6 |
| 20260902071055 | 65 | 146 | 4.0 | 10.0 | 0.00 | 0.15 | 0.00 | 95 | 1015.6 |
| 20260902070555 | 65 | 138 | 4.0 | 10.0 | 0.00 | 0.15 | 0.00 | 95 | 1015.7 |
| 20260902070054 | 65 | 136 | 6.0 | 9.0 | 0.00 | 0.15 | 0.00 | 95 | 1015.7 |
| 20260902065556 | 65 | 116 | 2.0 | 8.0 | 0.00 | 0.16 | 0.00 | 95 | 1015.8 |
| 20260902065054 | 65 | 131 | 3.0 | 8.0 | 0.00 | 0.16 | 0.00 | 95 | 1015.8 |
| 20260902064601 | 65 | 145 | 4.0 | 8.0 | 0.00 | 0.16 | 0.00 | 95 | 1015.8 |
| 20260902064053 | 65 | 121 | 2.0 | 6.0 | 0.00 | 0.16 | 0.00 | 95 | 1015.9 |
| 20260902063553 | 65 | 87 | 2.0 | 6.0 | 0.00 | 0.16 | 0.00 | 95 | 1015.9 |
| 20260902063054 | 65 | 95 | 2.0 | 7.0 | 0.00 | 0.16 | 0.00 | 95 | 1015.9 |
| 20260902062556 | 65 | 120 | 1.0 | 6.0 | 0.00 | 0.16 | 0.00 | 95 | 1016.0 |
| 20260902062052 | 65 | 108 | 2.0 | 7.0 | 0.00 | 0.16 | 0.00 | 95 | 1016.0 |
| 20260902061604 | 65 | 136 | 3.0 | 7.0 | 0.00 | 0.16 | 0.00 | 95 | 1015.9 |
| 20260902061051 | 65 | 114 | 3.0 | 8.0 | 0.00 | 0.16 | 0.00 | 95 | 1016.0 |
| 20260902060550 | 65 | 134 | 3.0 | 9.0 | 0.00 | 0.16 | 0.00 | 95 | 1016.0 |
| 20260902060054 | 65 | 135 | 3.0 | 9.0 | 0.00 | 0.16 | 0.00 | 95 | 1016.0 |
| 20260902055553 | 65 | 130 | 4.0 | 9.0 | 0.00 | 0.17 | 0.00 | 95 | 1016.0 |
| 20260902055050 | 65 | 139 | 4.0 | 9.0 | 0.00 | 0.17 | 0.00 | 95 | 1015.8 |
| 20260902054552 | 65 | 109 | 4.0 | 7.0 | 0.00 | 0.17 | 0.00 | 95 | 1015.9 |
| 20260902054048 | 65 | 141 | 3.0 | 7.0 | 0.00 | 0.17 | 0.00 | 95 | 1016.0 |
| 20260902053548 | 65 | 109 | 3.0 | 7.0 | 0.00 | 0.17 | 0.00 | 95 | 1015.9 |
| 20260902053048 | 65 | 109 | 2.0 | 5.0 | 0.00 | 0.17 | 0.00 | 95 | 1015.8 |
| 20260902052546 | 65 | 101 | 2.0 | 6.0 | 0.00 | 0.17 | 0.00 | 95 | 1015.8 |
| 20260902052046 | 65 | 103 | 3.0 | 6.0 | 0.00 | 0.17 | 0.00 | 95 | 1015.8 |
| 20260902051546 | 65 | 116 | 1.0 | 3.0 | 0.00 | 0.17 | 0.00 | 95 | 1015.7 |
| 20260902051047 | 65 | 93 | 1.0 | 7.0 | 0.00 | 0.17 | 0.00 | 95 | 1015.8 |
| 20260902050545 | 65 | 99 | 2.0 | 6.0 | 0.00 | 0.17 | 0.00 | 95 | 1015.7 |
| 20260902050047 | 65 | 98 | 1.0 | 6.0 | 0.00 | 0.17 | 0.00 | 95 | 1015.7 |
| 20260902045543 | 65 | 129 | 1.0 | 6.0 | 0.00 | 0.17 | 0.00 | 95 | 1015.6 |
| 20260902045047 | 65 | 107 | 1.0 | 6.0 | 0.00 | 0.17 | 0.00 | 95 | 1015.5 |
| 20260902044543 | 65 | 111 | 1.0 | 6.0 | 0.00 | 0.17 | 0.00 | 95 | 1015.4 |
| 20260902044043 | 65 | 112 | 2.0 | 6.0 | 0.00 | 0.17 | 0.00 | 95 | 1015.3 |
| 20260902043545 | 65 | 100 | 2.0 | 4.0 | 0.00 | 0.17 | 0.00 | 95 | 1015.3 |
| 20260902043042 | 65 | 87 | 2.0 | 4.0 | 0.00 | 0.17 | 0.00 | 95 | 1015.4 |
| 20260902042542 | 65 | 133 | 1.0 | 2.0 | 0.00 | 0.17 | 0.00 | 95 | 1015.5 |
| 20260902042042 | 65 | 138 | 0.0 | 3.0 | 0.00 | 0.17 | 0.00 | 95 | 1015.5 |
| 20260902041541 | 65 | 138 | 1.0 | 4.0 | 0.00 | 0.17 | 0.00 | 95 | 1015.5 |
| 20260902041042 | 65 | 139 | 1.0 | 4.0 | 0.00 | 0.17 | 0.00 | 95 | 1015.4 |
| 20260902040542 | 65 | 137 | 1.0 | 3.0 | 0.00 | 0.17 | 0.00 | 94 | 1015.3 |
| 20260902040040 | 65 | 137 | 0.0 | 4.0 | 0.00 | 0.17 | 0.00 | 94 | 1015.3 |
| 20260902035538 | 65 | 137 | 2.0 | 4.0 | 0.00 | 0.17 | 0.17 | 94 | 1015.2 |
| 20260902035037 | 65 | 120 | 0.0 | 4.0 | 0.00 | 0.17 | 0.17 | 94 | 1015.1 |
| 20260902034537 | 65 | 101 | 1.0 | 4.0 | 0.00 | 0.17 | 0.17 | 94 | 1015.0 |
| 20260902034037 | 65 | 110 | 1.0 | 8.0 | 0.00 | 0.17 | 0.17 | 94 | 1015.0 |
| 20260902033539 | 65 | 134 | 4.0 | 8.0 | 0.00 | 0.17 | 0.17 | 94 | 1015.1 |
| 20260902033037 | 65 | 142 | 2.0 | 6.0 | 0.00 | 0.17 | 0.17 | 94 | 1015.1 |
| 20260902032537 | 65 | 96 | 3.0 | 6.0 | 0.00 | 0.17 | 0.17 | 94 | 1015.1 |
| 20260902032038 | 65 | 80 | 2.0 | 7.0 | 0.00 | 0.17 | 0.17 | 94 | 1015.2 |
| 20260902031536 | 65 | 102 | 2.0 | 7.0 | 0.00 | 0.17 | 0.17 | 94 | 1015.2 |
| 20260902031036 | 65 | 127 | 2.0 | 8.0 | 0.00 | 0.17 | 0.17 | 94 | 1015.1 |
| 20260902030535 | 65 | 150 | 3.0 | 8.0 | 0.00 | 0.17 | 0.17 | 94 | 1015.3 |
| 20260902030036 | 65 | 106 | 3.0 | 6.0 | 0.00 | 0.17 | 0.17 | 94 | 1015.3 |
| 20260902025535 | 65 | 99 | 2.0 | 8.0 | 0.00 | 0.17 | 0.17 | 94 | 1015.2 |
| 20260902025035 | 65 | 141 | 4.0 | 9.0 | 0.00 | 0.17 | 0.17 | 94 | 1015.1 |
| 20260902024535 | 65 | 132 | 4.0 | 9.0 | 0.00 | 0.17 | 0.17 | 94 | 1015.1 |
| 20260902024034 | 65 | 141 | 4.0 | 8.0 | 0.00 | 0.17 | 0.17 | 94 | 1015.0 |
| 20260902023534 | 65 | 134 | 4.0 | 10.0 | 0.00 | 0.17 | 0.17 | 94 | 1015.1 |
| 20260902023042 | 65 | 138 | 7.0 | 10.0 | 0.00 | 0.17 | 0.17 | 94 | 1015.1 |
| 20260902022534 | 65 | 123 | 7.0 | 10.0 | 0.00 | 0.17 | 0.17 | 94 | 1015.3 |
| 20260902022034 | 65 | 130 | 4.0 | 10.0 | 0.00 | 0.17 | 0.17 | 94 | 1015.4 |
| 20260902021534 | 65 | 106 | 3.0 | 7.0 | 0.00 | 0.17 | 0.17 | 94 | 1015.5 |
| 20260902021033 | 65 | 130 | 2.0 | 8.0 | 0.00 | 0.17 | 0.17 | 94 | 1015.6 |
| 20260902020533 | 65 | 91 | 4.0 | 8.0 | 0.00 | 0.17 | 0.17 | 94 | 1015.6 |